[[{"header":{"parameterUnit":"m.s-1","parameterCategory":1,"la1":30.2991,"la2":30.254,"lo1":-89.0895,"lo2":-89.0444,"dy":0.0017,"dx":0.0017,"nx":28,"ny":28,"refTime":"2024-05-29T03:00:00:Z","depth":0,"parameterNumber":2,"parameterNumberName":"U-component_of_WINDS"},"data":[0,0,0,0,0,0,0,0,0,0,0,0,0,0,0,0,0,0,0,0,0,0,0,0,0,0,0,0,0,0,0,0,0,0,0,0,0,0,0,0,0,0,0,0,0,0,0,0,0,0,0,0,0,0,0,0,0,0,2.7966,2.7966,0,2.7947,2.7947,2.7947,2.7786,2.7782,2.7778,2.7775,2.7757,2.776,2.7763,0,0,0,0,0,0,0,0,0,0,0,0,0,2.7866,2.7869,2.7966,2.7966,2.7966,2.7947,2.7947,2.7947,2.7787,2.7782,2.7777,2.7773,2.7755,2.7759,2.7763,0,0,0,0,0,0,0,0,0,0,0,0,0,2.7885,2.787,2.7966,2.7884,2.7876,2.7947,2.7947,2.7947,2.7788,2.7782,2.7776,2.777,2.7754,2.7759,2.7764,2.7913,0,0,2.7778,2.7781,0,0,0,0,0,0,0,0,2.7884,2.7889,2.7896,2.789,2.7881,2.7863,2.7905,2.7935,2.7789,2.7822,2.7774,2.7768,2.7797,2.7798,2.7807,2.7912,2.7911,2.7779,2.7782,2.7784,2.7785,0,0,0,0,0,0,0,2.7883,2.7889,2.7959,2.7896,2.7887,2.7848,2.7845,2.791,2.7843,2.7818,2.7807,2.7806,2.7792,2.7803,2.7806,2.7911,2.7779,2.7783,2.7786,2.7788,2.814,2.8146,0,0,0,0,0,0,2.7893,2.7889,2.7959,2.7958,2.7868,2.7855,2.7851,2.7875,2.7842,2.7831,2.7812,2.7799,2.7798,2.78,2.7805,2.7979,2.7784,2.7788,2.7791,2.8133,2.8141,2.8148,0,0,0,0,0,0,2.7892,2.7901,2.796,2.792,2.7925,2.7863,2.7892,2.7878,2.7889,2.7837,2.7824,2.7836,2.7793,2.7798,2.7888,2.7976,2.7791,2.7795,2.8126,2.8136,2.8145,2.8328,0,0,0,0,0,0,2.7889,2.7901,2.7957,2.7923,2.7928,2.8043,2.7897,2.7882,2.7898,2.7881,2.7856,2.7846,2.7789,2.7881,2.7893,2.7979,2.7799,2.8118,2.813,2.8142,2.8314,2.8343,2.8368,0,0,0,0,0,2.7886,2.8009,2.796,2.797,2.7995,2.8049,2.8051,2.7983,2.7905,2.7961,2.7928,2.7847,2.7964,2.7892,2.7903,2.7993,2.8112,2.8127,2.8141,2.8302,2.8337,2.8367,0,0,0,0,0,0,2.8054,2.8003,2.7948,2.8063,2.8062,2.8021,2.8089,2.8022,2.8043,2.8026,2.7941,2.7937,2.804,2.8025,2.7945,2.8137,2.8024,2.8042,2.8143,2.8176,2.8202,2.8204,2.7803,0,0,0,0,0,2.8105,2.8152,2.8104,2.821,2.8212,2.8152,2.8172,2.812,2.8115,2.8113,2.8086,2.8085,2.8122,2.8148,2.8178,2.8311,2.8304,2.8378,2.8405,2.8427,2.8444,2.8515,2.8548,2.8196,2.8196,2.8195,0,0,2.8209,2.8187,2.8222,2.8243,2.8236,2.8288,2.8152,2.8212,2.825,2.8122,2.8206,2.8187,2.818,2.8293,2.8341,2.8283,2.854,2.8446,2.8464,2.8468,2.8533,2.8567,2.8597,2.8206,2.8204,2.8202,0,0,2.8426,2.8414,2.8502,2.8498,2.8488,2.8447,2.8469,2.844,2.8422,2.8505,2.8411,2.8455,2.852,2.8519,2.8528,2.8748,2.8675,2.876,2.8901,2.8972,2.8999,2.9023,2.9104,2.9134,2.8777,2.8777,2.8777,0,2.8558,2.8631,2.8555,2.8623,2.8636,2.8523,2.8613,2.8612,2.8614,2.8626,2.8562,2.8642,2.8629,2.8741,2.8795,2.8805,2.8828,2.8763,2.9001,2.9025,2.9046,2.9122,2.9153,2.8788,2.8786,2.8785,2.8784,0,2.8794,2.8847,2.892,2.8925,2.8946,2.9024,2.8961,2.8992,2.8939,2.8905,2.8992,2.8973,2.8999,2.9022,2.8969,2.9128,2.9092,2.9016,2.8901,2.9092,2.9162,2.919,2.8803,2.8799,2.8796,2.8793,0,0,2.9116,2.908,2.9108,2.911,2.9093,2.9133,2.9206,2.9232,2.9261,2.9266,2.9327,2.9386,2.9316,2.9325,2.9272,2.9334,2.9513,2.925,2.9248,2.9301,2.9688,2.9747,2.9782,2.9464,2.9469,2.9473,2.9689,0,2.9327,2.945,2.9386,2.9518,2.9568,2.9462,2.9527,2.9524,2.9496,2.9534,2.9501,2.9545,2.9448,2.9454,2.951,2.9479,2.9589,2.9462,2.9521,2.9524,2.9528,2.9818,2.9879,3.0084,2.9716,2.972,2.9724,0,2.9589,2.9607,2.9745,2.972,2.9739,2.9798,2.9817,2.9855,2.985,2.9825,2.9838,2.977,2.9842,2.9729,2.9828,2.9743,2.9763,2.9752,2.9758,2.9762,2.9636,2.9831,3.0148,3.0179,2.9766,2.9762,2.9759,0,2.9812,2.9871,2.9961,2.9966,2.9939,2.9984,2.9975,2.9964,2.9985,3.0002,3.0015,3.004,3.0055,3.0077,3.0019,2.9941,3.0127,3.0008,3.011,3.0112,3.0154,3.0153,3.048,3.0166,3.0165,3.0164,3.0164,0,3.0055,3.0144,3.0062,3.0118,3.0215,3.014,3.0239,3.0219,3.0211,3.0262,3.0172,3.0222,3.0142,3.0185,3.014,3.023,3.0237,3.0219,3.0207,3.0228,3.0231,3.0241,3.0226,3.0172,3.0171,3.0169,3.0168,0,3.0322,3.0269,3.0362,3.033,3.0324,3.0398,3.037,3.0422,3.0387,3.0453,3.0464,3.0411,3.0457,3.0401,3.0441,3.0411,3.0535,3.05,3.0537,3.0527,3.0633,3.0625,3.098,3.1023,3.068,3.0683,3.0686,0,3.0481,3.0547,3.0523,3.0551,3.0547,3.0593,3.0614,3.0543,3.0569,3.057,3.0622,3.066,3.0687,3.0765,3.073,3.0761,3.0727,3.085,3.0731,3.0752,3.0731,3.0729,3.0736,3.0875,3.0879,3.0882,3.0885,0,3.0769,3.0741,3.0774,3.08,3.0828,3.0844,3.0854,3.0882,3.0809,3.0842,3.0888,3.0909,3.0951,3.0991,3.1013,3.1004,3.0934,3.0922,3.0948,3.0971,3.0991,3.0983,3.0604,3.0915,3.0912,3.0909,3.0908,3.0907,3.0988,3.1043,3.1035,3.1076,3.1076,3.1088,3.1136,3.1108,3.1145,3.1174,3.113,3.1188,3.1183,3.1205,3.1205,3.125,3.1197,3.1234,3.1243,3.1254,3.1271,3.0983,3.1254,3.1253,3.1252,3.1251,3.125,0,3.1273,3.1264,3.1302,3.1319,3.1353,3.1283,3.1291,3.1323,3.1376,3.1377,3.1406,3.146,3.1498,3.1468,3.15,3.1542,3.1511,3.1553,3.155,3.155,3.1315,3.1291,3.1578,3.1578,3.1578,3.1578,3.1578,3.1578,3.1426,3.1516,3.1488,3.1578,3.1567,3.1624,3.1635,3.1646,3.1647,3.1711,3.1743,3.1723,3.1712,3.1743,3.1776,3.1766,3.1783,3.1837,3.1816,3.1598,3.1566,3.1535,3.1512,3.1841,3.1841,3.2046,3.2048,3.205]},{"header":{"parameterUnit":"m.s-1","parameterCategory":1,"la1":30.2991,"la2":30.254,"lo1":-89.0895,"lo2":-89.0444,"dy":0.0017,"dx":0.0017,"nx":28,"ny":28,"refTime":"2024-05-29T03:00:00:Z","depth":0,"parameterNumber":3,"parameterNumberName":"V-component_of_WINDS"},"data":[0,0,0,0,0,0,0,0,0,0,0,0,0,0,0,0,0,0,0,0,0,0,0,0,0,0,0,0,0,0,0,0,0,0,0,0,0,0,0,0,0,0,0,0,0,0,0,0,0,0,0,0,0,0,0,0,0,0,-0.2826,-0.2823,0,-0.2576,-0.2573,-0.257,-0.2519,-0.252,-0.2522,-0.2524,-0.2258,-0.2249,-0.224,0,0,0,0,0,0,0,0,0,0,0,0,0,-0.3249,-0.3241,-0.2826,-0.2823,-0.282,-0.2577,-0.2573,-0.257,-0.2518,-0.2521,-0.2523,-0.2525,-0.2261,-0.225,-0.224,0,0,0,0,0,0,0,0,0,0,0,0,0,-0.3038,-0.3239,-0.2827,-0.2765,-0.2757,-0.2577,-0.2573,-0.2569,-0.2518,-0.2521,-0.2523,-0.2526,-0.2264,-0.2251,-0.2238,-0.2099,0,0,-0.2198,-0.2192,0,0,0,0,0,0,0,0,-0.305,-0.3023,-0.2777,-0.2769,-0.276,-0.2582,-0.2624,-0.2411,-0.2517,-0.2608,-0.2524,-0.2528,-0.2363,-0.2341,-0.2288,-0.2086,-0.2075,-0.2196,-0.2188,-0.2183,-0.2179,0,0,0,0,0,0,0,-0.3065,-0.3033,-0.2727,-0.2774,-0.2763,-0.2747,-0.272,-0.2584,-0.2472,-0.2601,-0.2596,-0.2568,-0.2358,-0.2301,-0.2281,-0.2071,-0.2197,-0.2185,-0.2177,-0.2171,-0.174,-0.1737,0,0,0,0,0,0,-0.3092,-0.3046,-0.2735,-0.272,-0.2916,-0.2737,-0.2707,-0.2636,-0.2474,-0.2452,-0.2566,-0.2567,-0.2322,-0.2297,-0.2272,-0.2096,-0.2183,-0.217,-0.2163,-0.1744,-0.1739,-0.1736,0,0,0,0,0,0,-0.3101,-0.3065,-0.2745,-0.2881,-0.284,-0.2727,-0.2647,-0.2629,-0.2572,-0.2447,-0.2426,-0.2528,-0.2323,-0.229,-0.2142,-0.2086,-0.2164,-0.2152,-0.1748,-0.1742,-0.1737,-0.1746,0,0,0,0,0,0,-0.3114,-0.3068,-0.3017,-0.2881,-0.2833,-0.2623,-0.2644,-0.2622,-0.255,-0.2549,-0.2407,-0.2386,-0.2323,-0.2163,-0.2129,-0.2069,-0.2142,-0.1752,-0.1745,-0.1739,-0.175,-0.1741,-0.1734,0,0,0,0,0,-0.3129,-0.3027,-0.3014,-0.2977,-0.2766,-0.262,-0.2592,-0.2525,-0.2546,-0.2491,-0.2411,-0.239,-0.2099,-0.2148,-0.211,-0.2045,-0.1755,-0.1747,-0.174,-0.1753,-0.1743,-0.1734,0,0,0,0,0,0,-0.3155,-0.3008,-0.2992,-0.2844,-0.2746,-0.2612,-0.2541,-0.2517,-0.2407,-0.241,-0.2328,-0.2297,-0.2153,-0.2084,-0.2142,-0.1901,-0.1927,-0.1912,-0.1951,-0.194,-0.1933,-0.1951,-0.2131,0,0,0,0,0,-0.3145,-0.3042,-0.2917,-0.2798,-0.275,-0.2654,-0.2588,-0.2546,-0.2438,-0.2395,-0.2304,-0.2198,-0.2082,-0.2008,-0.1894,-0.174,-0.1707,-0.1677,-0.1669,-0.1663,-0.165,-0.1561,-0.1546,-0.171,-0.171,-0.171,0,0,-0.312,-0.3027,-0.2966,-0.2801,-0.272,-0.2612,-0.2619,-0.2504,-0.2422,-0.2376,-0.2232,-0.2162,-0.2037,-0.1886,-0.1814,-0.1824,-0.1598,-0.1653,-0.165,-0.1639,-0.1552,-0.1536,-0.1523,-0.1705,-0.1706,-0.1706,0,0,-0.302,-0.2941,-0.2832,-0.2751,-0.2629,-0.2566,-0.254,-0.241,-0.2362,-0.2217,-0.218,-0.2079,-0.1882,-0.1795,-0.1725,-0.1593,-0.1568,-0.1558,-0.1516,-0.1431,-0.1418,-0.1406,-0.1356,-0.134,-0.1545,-0.1545,-0.1545,0,-0.3004,-0.2843,-0.2779,-0.2666,-0.2593,-0.2551,-0.2438,-0.2362,-0.2207,-0.2156,-0.2171,-0.1922,-0.1836,-0.1663,-0.1631,-0.1576,-0.1541,-0.1573,-0.1426,-0.1413,-0.1401,-0.1353,-0.1334,-0.1545,-0.1545,-0.1545,-0.1545,0,-0.2828,-0.2717,-0.2644,-0.2499,-0.2418,-0.2306,-0.2222,-0.2147,-0.2112,-0.2046,-0.1897,-0.1793,-0.1657,-0.1613,-0.1576,-0.1433,-0.1443,-0.1443,-0.1467,-0.1386,-0.1339,-0.132,-0.1544,-0.1544,-0.1544,-0.1544,0,0,-0.2736,-0.2559,-0.2533,-0.2467,-0.2329,-0.224,-0.2125,-0.1996,-0.1932,-0.1827,-0.1726,-0.1561,-0.156,-0.148,-0.1433,-0.1359,-0.1258,-0.1366,-0.1362,-0.1348,-0.1092,-0.1092,-0.1072,-0.1242,-0.1238,-0.1235,-0.1102,0,-0.2618,-0.2415,-0.2354,-0.2182,-0.2077,-0.2035,-0.1934,-0.1837,-0.1773,-0.1672,-0.1599,-0.1483,-0.1491,-0.1443,-0.1368,-0.1287,-0.1205,-0.1296,-0.1144,-0.114,-0.1175,-0.1048,-0.1048,-0.0927,-0.1083,-0.108,-0.1078,0,-0.2452,-0.2348,-0.2167,-0.2043,-0.1996,-0.1907,-0.1783,-0.1688,-0.1576,-0.1534,-0.1447,-0.1406,-0.1281,-0.1315,-0.114,-0.1203,-0.1137,-0.1088,-0.1081,-0.1063,-0.1103,-0.1024,-0.0886,-0.0868,-0.1049,-0.1051,-0.1053,0,-0.2401,-0.2215,-0.2083,-0.2027,-0.1879,-0.1817,-0.1752,-0.1643,-0.1569,-0.146,-0.141,-0.1287,-0.1218,-0.1122,-0.1048,-0.108,-0.0878,-0.0907,-0.0837,-0.0839,-0.0795,-0.0798,-0.0643,-0.0757,-0.0757,-0.0757,-0.0758,0,-0.2275,-0.2165,-0.2058,-0.1976,-0.1851,-0.178,-0.1657,-0.1589,-0.1493,-0.1394,-0.135,-0.1258,-0.1167,-0.1061,-0.1002,-0.0865,-0.0835,-0.0795,-0.078,-0.0798,-0.0803,-0.0752,-0.0758,-0.0752,-0.0753,-0.0754,-0.0755,0,-0.2195,-0.212,-0.1972,-0.1845,-0.181,-0.1724,-0.1613,-0.153,-0.1465,-0.1341,-0.1307,-0.1204,-0.1078,-0.0995,-0.0833,-0.0793,-0.0643,-0.0631,-0.0682,-0.0674,-0.0609,-0.0616,-0.0414,-0.0383,-0.052,-0.0519,-0.0518,0,-0.2119,-0.2034,-0.1898,-0.1831,-0.1767,-0.1658,-0.1583,-0.151,-0.1433,-0.1299,-0.1232,-0.1104,-0.0997,-0.0797,-0.0705,-0.0581,-0.0564,-0.0503,-0.0545,-0.0565,-0.0561,-0.0566,-0.0556,-0.0495,-0.0494,-0.0493,-0.0492,0,-0.199,-0.1957,-0.1853,-0.1735,-0.1648,-0.155,-0.1452,-0.1399,-0.1308,-0.1223,-0.1096,-0.1014,-0.085,-0.0722,-0.059,-0.0518,-0.0488,-0.048,-0.0457,-0.0473,-0.0505,-0.0485,-0.0661,-0.0484,-0.0485,-0.0486,-0.0486,-0.0486,-0.1908,-0.183,-0.1723,-0.1607,-0.1527,-0.1437,-0.1353,-0.1279,-0.1172,-0.1036,-0.0998,-0.0864,-0.0752,-0.0572,-0.0499,-0.0391,-0.0397,-0.0364,-0.0355,-0.0348,-0.0347,-0.0525,-0.0366,-0.0366,-0.0366,-0.0367,-0.0367,0,-0.1775,-0.1704,-0.1599,-0.1466,-0.1374,-0.1359,-0.125,-0.1173,-0.1058,-0.0958,-0.0855,-0.0707,-0.0583,-0.0483,-0.0354,-0.0287,-0.027,-0.0255,-0.0258,-0.0242,-0.0349,-0.0381,-0.0271,-0.0271,-0.0271,-0.0271,-0.0271,-0.0271,-0.1695,-0.1562,-0.1517,-0.1342,-0.1271,-0.1143,-0.1082,-0.0997,-0.0917,-0.0756,-0.0654,-0.059,-0.0489,-0.0353,-0.0237,-0.021,-0.0164,-0.0152,-0.0122,-0.0224,-0.0234,-0.0244,-0.0274,-0.0143,-0.0143,-0.0023,-0.0022,-0.0021]}]]